Home   Weather   Pueblo   Past weeks
Flag for USA

Past Weather in Pueblo, Colorado, USA — Yesterday and Last 2 Weeks

Now
37 °F

Clear.


Feels Like: 32 °F
Forecast: 82 / 41 °F
Wind: 7 mph from West

Location: Pueblo Memorial Airport

Current Time: Oct 17, 2019 at 5:30:11 am

Latest Report: Oct 17, 2019 at 4:53 am


Visibility: 10 mi

Pressure: 29.87 "Hg (25.02 "Hg at 1430m altitude)

Humidity: 50%

Dew Point: 20 °F

Location of PuebloLocation

Past Weather in Pueblo — Graph

°F

Pueblo Temperature Yesterday

Maximum temperature yesterday: 75 °F (at 4:53 pm)
Minimum temperature yesterday: 30 °F (at 6:53 am)
Average temperature yesterday: 51 °F

High & Low Weather Summary for the Past Weeks

 TemperatureHumidityPressure
High86 °F (Oct 8, 2:53 pm)100% (Oct 2, 5:53 am)30.42 "Hg (Oct 2, 5:53 am)
Low19 °F (Oct 11, 6:53 am)5% (Oct 13, 2:53 pm)29.38 "Hg (Oct 9, 3:53 pm)
Average51 °F44%30.00 "Hg
* Reported Oct 2 3:15 am — Oct 17 3:53 am, Pueblo. Weather by CustomWeather, © 2019

Note: Actual official high and low records may vary slightly from our data, if they occured in-between our weather recording intervals... More about our weather records

Advertising

Pueblo Weather History for the Previous 24 Hours

Scroll right to see more
 ConditionsComfort  
Time TempWeatherWind HumidityBarometerVisibility
3:53 am
Thu, Oct 17
40 °FClear.6 mph43%29.87 "Hg10 mi
2:53 am37 °FClear.6 mph44%29.89 "Hg10 mi
1:53 am44 °FClear.6 mph43%29.90 "Hg10 mi
12:53 am39 °FClear.6 mph39%29.93 "Hg10 mi
11:53 pm
Wed, Oct 16
44 °FClear.5 mph38%29.94 "Hg10 mi
10:53 pm45 °FClear.7 mph40%29.97 "Hg10 mi
9:53 pm50 °FClear.6 mph29%29.98 "Hg10 mi
8:53 pm56 °FClear.6 mph22%29.98 "Hg10 mi
7:53 pm56 °FClear.6 mph23%30.01 "Hg10 mi
6:53 pm61 °FClear.8 mph18%29.99 "Hg10 mi
5:53 pm71 °FSunny.6 mph14%29.96 "Hg10 mi
4:53 pm75 °FSunny.9 mph13%29.95 "Hg10 mi
3:53 pm74 °FSunny.10 mph15%29.97 "Hg10 mi
2:53 pm72 °FSunny.9 mph15%29.99 "Hg10 mi
1:53 pm70 °FSunny.8 mph17%30.02 "Hg10 mi
12:53 pm68 °FSunny.3 mph19%30.06 "Hg10 mi
11:53 am63 °FSunny.No wind23%30.10 "Hg10 mi
10:53 am58 °FSunny.5 mph26%30.11 "Hg10 mi
9:53 am52 °FSunny.No wind34%30.15 "Hg10 mi
8:53 am44 °FSunny.No wind41%30.19 "Hg10 mi
7:53 am35 °FSunny.No wind52%30.19 "Hg10 mi
6:53 am30 °FClear.No wind59%30.19 "Hg10 mi
5:53 am31 °FClear.5 mph61%30.18 "Hg10 mi
Weather by CustomWeather, © 2019

See weather overview